Weather Roundup
Issued by NWS

Home | Current Version | Previous Version | Text Only | Print | Product List | Glossary On
Versions: 1 2 3 4 5 6 7 8 9 10 11 12 13 14 15 16 17 18 19 20 21 22 23 24 25 26 27 28 29 30 31 32 33 34 35 36 37 38 39 40 41 42 43 44 45 46 47 48 49 50
000
NZUS93 KARX 300310
HRRWXR

CURRENT HOURLY OBSERVATIONS ACROSS
MUCH OF THE UPPER MISSISSIPPI VALLEY
NATIONAL WEATHER SERVICE LA CROSSE WI
1000 PM CDT FRI AUG 29 2014


...SOUTHEAST MINNESOTA...


CITY           SKY/WX    TMP DP  RH WIND       PRES   REMARKS
ROCHESTER      LGT RAIN  66  63  90 NE3       29.79F
ROCHESTER/MAYO CLOUDY    66  64  94 CALM      29.79F
WINONA         RAIN      68  68 100 NW3       29.78F
AUSTIN         CLOUDY    64  64 100 CALM      29.78S
ALBERT LEA     TSTM      66  66 100 S5        29.80R
DODGE CENTER   HVY RAIN  66  64  94 S8        29.80S
PRESTON        CLOUDY    65  65 100 CALM      29.80F FOG
OWATONNA       LGT RAIN  72  70  94 CALM      29.78R
FARIBAULT      LGT RAIN  73  66  78 W3        29.78R
$$

...ELSEWHERE IN MINNESOTA...


CITY           SKY/WX    TMP DP  RH WIND       PRES   REMARKS
MINNEAPOLIS    LGT RAIN  70  69  97 VRB3      29.77S
INTNL FALLS    CLOUDY    63  62  97 N7        29.80F
DULUTH         CLOUDY    63  60  90 CALM      29.81R FOG
RED WING       LGT RAIN  70  68  94 SE12G18   29.74F
REDWOOD FALLS  CLOUDY    66  65  96 CALM      29.79R
MANKATO        CLOUDY    70  64  83 NW8       29.79R
WORTHINGTON    CLOUDY    66  64  94 W8        29.82S
FAIRMONT       CLOUDY    64  61  88 CALM      29.81R
$$

...SOUTHWEST WISCONSIN...


CITY           SKY/WX    TMP DP  RH WIND       PRES   REMARKS
LA CROSSE      CLOUDY    71  68  90 CALM      29.78F
PRAIRIE DU CHI CLOUDY    73  65  75 CALM      29.77F
BOSCOBEL       CLOUDY    74  67  78 CALM      29.78S THUNDER
LONE ROCK      CLOUDY    76  69  79 E5        29.79F
PLATTEVILLE    CLOUDY    74  71  91 W14G25    29.82R
FORT MC COY    RAIN      66  66 100 SE7       29.82F
CAMP DOUGLAS   LGT RAIN  70  70 100 W7        29.81R
VIROQUA        CLOUDY    67  67 100 CALM      29.82F
WIS DELLS      CLOUDY    77  69  76 S8        29.80F
$$

...ELSEWHERE IN WISCONSIN...


CITY           SKY/WX    TMP DP  RH WIND       PRES   REMARKS
MILWAUKEE      PTCLDY    76  71  85 S12       29.87S
MADISON        CLOUDY    78  70  76 S16       29.82F
GREEN BAY      MOCLDY    73  71  93 S8        29.82S
EAU CLAIRE     LGT RAIN  67  67 100 SE5       29.78F
BLACK RVR FLS  RAIN      68  68 100 NW3       29.79F
MEDFORD        CLOUDY    64  63  99 W6        29.84R
WAUSAU         LGT RAIN  66  65  96 E5        29.83R
WIS RAPIDS     TSTM      67  66  97 E5        29.83S FOG
MARSHFIELD     LGT RAIN  67  65  93 CALM      29.81F
RICE LAKE      LGT RAIN  64  63  94 CALM      29.82R
$$

...NORTHEAST IOWA...


CITY           SKY/WX    TMP DP  RH WIND       PRES   REMARKS
WATERLOO       LGT RAIN  68  66  93 SE5       29.78S FOG
DUBUQUE        CLOUDY    73  71  93 SW12      29.80S
DECORAH        CLOUDY    68  68 100 CALM      29.78F FOG
MASON CITY     CLOUDY    68  67  96 NW6       29.81R
CHARLES CITY   CLOUDY    66  66 100 E5        29.80S
OELWEIN        LGT RAIN  68  66  94 S3        29.81F
$$

...ELSEWHERE IN IOWA...


CITY           SKY/WX    TMP DP  RH WIND       PRES   REMARKS
DES MOINES     CLOUDY    71  67  87 SW6       29.78S
IOWA CITY      CLOUDY    72  70  93 S8        29.82R
FORT DODGE     CLOUDY    66  64  94 N5        29.79S
MARSHALLTOWN   CLOUDY    68  67  96 SE6       29.79S
CEDAR RAPIDS   CLOUDY    69  69 100 S7        29.80S
$$

...NORTHERN ILLINOIS...


CITY           SKY/WX    TMP DP  RH WIND       PRES   REMARKS
CHICAGO-OHARE  MOCLDY    77  67  71 S15       29.89S
DUPAGE         PTCLDY    76  69  79 SE10      29.88S
CHICAGO-MIDWAY MOCLDY    79  70  74 SE13      29.90R
MOLINE         LGT RAIN  72  67  84 S12       29.83R
ROCKFORD       CLOUDY    71  66  84 SE9       29.86F
STERLING       CLOUDY    73  68  83 CALM      29.84S
PEORIA         LGT RAIN  72  68  87 SE6       29.89F
$$

NOTE: "FAIR" INDICATES FEW OR NO CLOUDS BELOW 12,000 FEET WITH NO
SIGNIFICANT WEATHER AND/OR OBSTRUCTIONS TO VISIBILITY. WIND
SPEEDS ARE IN MILES-PER-HOUR.



USA.gov is the U.S. government's official web portal to all federal, state and local government web resources and services.